Location: Asbacherhof
(48.8543°N, 10.7903°E)
Time: 22:46:46
(UTC+00:00)

CZ-2D R/B - Pass Details

Date: 26 May 2022
Orbit: 791 x 845 km, 98.7° (Epoch: 26 June)

Event Time Altitude Azimuth Distance (km) Brightness Sun altitude
Rises 02:31:46 0° 5° (N) 3,387 6.2 -7.3°
Reaches altitude 10° 02:34:37 10° 351° (N) 2,440 5.1 -7.0°
Maximum altitude 02:38:37 22° 303° (WNW) 1,738 3.7 -6.5°
Drops below altitude 10° 02:42:34 10° 254° (WSW) 2,402 4.0 -6.0°
Enters shadow 02:43:48 - 247° (WSW) 2,785 4.3 -5.9°
